Location: London
(51.5074°N, 0.1278°W)
Time: 22:50:41
(UTC+01:00)

DELFI C3 - Pass Details

Date: 07 October 2020
Orbit: 535 x 549 km, 97.4° (Epoch: 22 October)

Event Time Altitude Azimuth Distance (km) Brightness Sun altitude
Exits shadow 20:49:57 57° 210° (SSW) 648 ? -23.2°
Maximum altitude 20:50:30 67° 258° (WSW) 598 ? -23.3°
Drops below altitude 10° 20:54:28 10° 342° (NNW) 1,835 ? -23.9°
Sets 20:56:37 0° 345° (NNW) 2,735 ? -24.2°
